Thomson, GA

3:38 PM EDT on October 18, 2019 (GMT -0400)
Thomson-McDuffie County

Weather History for KHQU - August, 2019

Change the Weather History Date:

Tuesday, August 20, 2019

  Actual Average (KDNL) Record (KDNL)
Temperature  
Mean Temperature 77 °F -  
Max Temperature 84 °F 88 °F 98 °F (2007)
Min Temperature 70 °F 68 °F 69 °F (1999)
Cooling Degree Days 12    
Growing Degree Days 27 (Base 50)    
Moisture  
Dew Point 73 °F    
Average Humidity 89    
Maximum Humidity 100    
Minimum Humidity 67    
Precipitation  
Precipitation 0.67 in - - ()
Sea Level Pressure  
Sea Level Pressure 30.11 in    
Wind  
Wind Speed 3 mph (SW)    
Max Wind Speed 9 mph    
Max Gust Speed -    
Visibility 8 miles    
Events Rain , Thunderstorm    
Averages and records for this station are not official NWS values.
T = Trace of Precipitation, MM = Missing Value Source: NWS Daily Summary

Daily Weather History Graph

Daily Weather History Graph

Search for Another Location

Airport or City:

Astronomy

Aug. 20, 2019 Rise Set
Actual Time 6:55 AM EDT 8:10 PM EDT
Civil Twilight 6:29 AM EDT 8:36 PM EDT
Nautical Twilight 5:58 AM EDT 9:07 PM EDT
Astronomical Twilight 5:26 AM EDT 9:39 PM EDT
Moon 11:12 PM EDT (8/20) 11:19 AM EDT (8/20)
Length of Visible Light 14h 06m
Length of Day
13h 15m
Waning Gibbous, 78% of the Moon is Illuminated
Aug 20
Waning Gibbous
Aug 23
Last Quarter
Aug 30
New
Sep 5
First Quarter
Sep 14
Full

Hourly Weather History & Observations

Time (EDT) Temp. Heat Index Dew Point Humidity Pressure Visibility Wind Dir Wind Speed Gust Speed Precip Events Conditions
12:15 AM 71.2 °F - 70.3 °F 97% 30.12 in 10.0 mi WSW 3.5 mph - 0.01 in Rain , Thunderstorm Light Thunderstorms and Rain
12:35 AM 71.1 °F - 70.3 °F 98% 30.11 in 7.0 mi South 3.5 mph - 0.01 in Rain Light Rain
12:55 AM 70.7 °F - 70.3 °F 99% 30.10 in 5.0 mi Calm Calm - 0.03 in Rain , Thunderstorm Light Thunderstorms and Rain
1:15 AM 71.2 °F - 70.7 °F 98% 30.10 in 7.0 mi Calm Calm - N/A Rain , Thunderstorm Light Thunderstorms and Rain
1:35 AM 71.2 °F - 71.1 °F 99% 30.10 in 7.0 mi Calm Calm - N/A Rain , Thunderstorm Light Thunderstorms and Rain
1:55 AM 71.4 °F - 71.2 °F 99% 30.10 in 10.0 mi East 3.5 mph - N/A Rain Light Rain
2:15 AM 71.1 °F - 70.9 °F 99% 30.10 in 10.0 mi NE 4.6 mph - N/A Rain Light Rain
2:35 AM 70.9 °F - 70.7 °F 99% 30.09 in 10.0 mi East 3.5 mph - N/A   Mostly Cloudy
2:55 AM 71.1 °F - 70.7 °F 99% 30.09 in 10.0 mi SSE 3.5 mph - N/A   Clear
3:15 AM 70.7 °F - 70.5 °F 99% 30.10 in 7.0 mi South 3.5 mph - N/A Rain , Thunderstorm Light Thunderstorms and Rain
3:35 AM 70.7 °F - 70.7 °F 100% 30.09 in 7.0 mi ESE 5.8 mph - 0.01 in Rain , Thunderstorm Light Thunderstorms and Rain
4:15 AM 71.1 °F - 70.7 °F 99% 30.09 in 10.0 mi SE 3.5 mph - N/A Rain Light Rain
4:35 AM 70.9 °F - 70.7 °F 99% 30.10 in 4.0 mi SW 5.8 mph - 0.03 in Rain Heavy Rain
4:55 AM 70.9 °F - 70.7 °F 99% 30.10 in 1.0 mi Calm Calm - 0.25 in Rain Heavy Rain
5:15 AM 71.1 °F - 71.1 °F 100% 30.09 in 2.5 mi Calm Calm - 0.11 in Rain Light Rain
5:35 AM 71.2 °F - 71.2 °F 100% 30.10 in 3.5 mi SSE 3.5 mph - 0.12 in Rain Light Rain
5:55 AM 71.1 °F - 71.1 °F 100% 30.09 in 3.0 mi SSE 4.6 mph - 0.13 in Rain Light Rain
6:15 AM 70.7 °F - 70.7 °F 100% 30.10 in 3.5 mi SSE 3.5 mph - N/A Rain Light Rain
6:35 AM 70.7 °F - 70.7 °F 100% 30.10 in 4.0 mi South 3.5 mph - N/A   Mostly Cloudy
6:55 AM 70.9 °F - 70.9 °F 100% 30.11 in 5.0 mi ESE 4.6 mph - N/A   Overcast
7:35 AM 71.6 °F - 71.2 °F 99% 30.13 in 5.0 mi ESE 3.5 mph - N/A   Overcast
7:55 AM 71.8 °F - 71.4 °F 99% 30.13 in 7.0 mi East 3.5 mph - N/A   Overcast
8:15 AM 71.6 °F - 71.4 °F 99% 30.14 in 10.0 mi Calm Calm - N/A   Overcast
8:35 AM 72.1 °F - 71.8 °F 99% 30.14 in 7.0 mi Calm Calm - N/A   Overcast
8:55 AM 72.9 °F - 72.3 °F 98% 30.14 in 10.0 mi South 3.5 mph - N/A   Overcast
9:15 AM 73.2 °F - 72.3 °F 97% 30.14 in 10.0 mi Calm Calm - N/A   Overcast
9:35 AM 74.5 °F - 72.5 °F 94% 30.14 in 10.0 mi Calm Calm - N/A   Overcast
9:55 AM 76.1 °F - 73.0 °F 90% 30.13 in 10.0 mi East 4.6 mph - N/A   Overcast
10:35 AM 78.1 °F - 72.5 °F 83% 30.13 in 10.0 mi Calm Calm - N/A   Scattered Clouds
10:55 AM 78.3 °F - 72.0 °F 81% 30.13 in 10.0 mi Calm Calm - N/A   Mostly Cloudy
11:15 AM 78.6 °F - 73.0 °F 83% 30.14 in 10.0 mi WSW 3.5 mph - N/A   Overcast
11:55 AM 78.4 °F - 73.4 °F 84% 30.14 in 10.0 mi SW 9.2 mph - N/A   Overcast
12:15 PM 81.0 °F 85.8 °F 73.2 °F 77% 30.15 in 10.0 mi SSW 5.8 mph - N/A   Overcast
12:35 PM 81.3 °F 86.1 °F 72.9 °F 75% 30.15 in 10.0 mi WSW 5.8 mph - N/A   Mostly Cloudy
12:55 PM 82.6 °F 88.3 °F 73.0 °F 73% 30.14 in 10.0 mi West 4.6 mph - N/A   Mostly Cloudy
1:15 PM 84.6 °F 91.0 °F 73.0 °F 68% 30.14 in 10.0 mi West 5.8 mph - N/A   Mostly Cloudy
1:35 PM 84.4 °F 90.3 °F 72.3 °F 67% 30.14 in 10.0 mi West 5.8 mph - N/A   Scattered Clouds
1:55 PM 84.9 °F 91.4 °F 72.7 °F 67% 30.13 in 10.0 mi SW 4.6 mph - N/A   Mostly Cloudy
2:15 PM 84.7 °F 91.0 °F 72.9 °F 67% 30.12 in 10.0 mi WSW 3.5 mph - N/A   Mostly Cloudy
2:35 PM 84.4 °F 90.3 °F 72.3 °F 67% 30.11 in 10.0 mi East 6.9 mph - N/A   Overcast
2:55 PM 78.4 °F - 74.8 °F 89% 30.11 in 4.0 mi NNE 8.1 mph - 0.09 in Rain , Thunderstorm Heavy Thunderstorms and Rain
3:15 PM 76.5 °F - 75.9 °F 98% 30.11 in 1.5 mi NNE 4.6 mph - 0.15 in Rain , Thunderstorm Heavy Thunderstorms and Rain
3:35 PM 77.7 °F - 77.2 °F 98% 30.09 in 7.0 mi Calm Calm - 0.16 in Thunderstorm Thunderstorm
3:55 PM 81.5 °F 89.7 °F 77.9 °F 89% 30.09 in 10.0 mi Calm Calm - 0.16 in Thunderstorm Scattered Clouds
4:15 PM 81.9 °F 90.5 °F 77.9 °F 88% 30.09 in 10.0 mi South 3.5 mph - N/A   Clear
4:35 PM 84.2 °F 94.1 °F 77.2 °F 79% 30.08 in 10.0 mi WSW 4.6 mph - N/A   Scattered Clouds
4:55 PM 82.6 °F 90.8 °F 76.6 °F 82% 30.08 in 10.0 mi SW 8.1 mph - N/A   Mostly Cloudy
5:15 PM 84.6 °F 93.2 °F 75.6 °F 74% 30.08 in 10.0 mi WSW 5.8 mph - N/A Thunderstorm Mostly Cloudy
5:35 PM 84.2 °F 92.3 °F 75.2 °F 74% 30.08 in 10.0 mi WSW 6.9 mph - N/A   Mostly Cloudy
5:55 PM 84.7 °F 92.5 °F 74.5 °F 71% 30.07 in 10.0 mi West 9.2 mph - N/A   Mostly Cloudy
6:15 PM 84.2 °F 92.3 °F 75.2 °F 74% 30.06 in 10.0 mi WSW 6.9 mph - N/A   Scattered Clouds
6:35 PM 83.5 °F 91.2 °F 75.4 °F 76% 30.07 in 10.0 mi West 5.8 mph - N/A   Clear
6:55 PM 83.1 °F 91.3 °F 75.9 °F 79% 30.07 in 10.0 mi WSW 3.5 mph - N/A   Clear
7:15 PM 82.6 °F 89.9 °F 75.4 °F 79% 30.07 in 10.0 mi SW 3.5 mph - N/A   Clear
7:35 PM 83.1 °F 90.4 °F 74.8 °F 76% 30.08 in 10.0 mi Calm Calm - N/A   Clear
7:55 PM 81.3 °F 87.6 °F 75.4 °F 82% 30.08 in 10.0 mi SW 3.5 mph - N/A   Clear
8:15 PM 80.6 °F 86.4 °F 75.7 °F 85% 30.08 in 10.0 mi SW 3.5 mph - N/A Thunderstorm Mostly Cloudy
8:35 PM 79.7 °F - 76.5 °F 90% 30.08 in 10.0 mi SW 4.6 mph - N/A Thunderstorm Scattered Clouds
8:55 PM 80.1 °F 85.5 °F 76.1 °F 88% 30.08 in 10.0 mi West 3.5 mph - N/A   Scattered Clouds
9:15 PM 79.7 °F - 75.9 °F 88% 30.08 in 10.0 mi WSW 3.5 mph - N/A Thunderstorm Scattered Clouds
9:35 PM 79.7 °F - 75.7 °F 88% 30.09 in 10.0 mi West 3.5 mph - N/A Thunderstorm Scattered Clouds
9:55 PM 79.2 °F - 75.9 °F 90% 30.10 in 10.0 mi West 4.6 mph - N/A Rain , Thunderstorm Light Thunderstorms and Rain
10:15 PM 78.4 °F - 76.5 °F 94% 30.09 in 10.0 mi West 4.6 mph - N/A Rain Light Rain
10:35 PM 78.8 °F - 75.9 °F 91% 30.10 in 10.0 mi West 4.6 mph - N/A   Scattered Clouds
10:55 PM 78.8 °F - 75.2 °F 89% 30.11 in 10.0 mi West 4.6 mph - N/A   Scattered Clouds
11:15 PM 78.1 °F - 75.2 °F 91% 30.11 in 10.0 mi WSW 4.6 mph - N/A   Clear
11:35 PM 78.4 °F - 74.3 °F 87% 30.12 in 10.0 mi West 3.5 mph - N/A   Clear
11:55 PM 78.1 °F - 74.3 °F 88% 30.12 in 10.0 mi West 3.5 mph - N/A   Scattered Clouds